SCP
0 0 0 0 0 0 0 0 0 0 0 0 0 0 0 0 0 0 0 0 0 0 0 0 0 0 0 0 0 0 0 0 0 0 0 0 0 0 0 0 0 0 0 0
0 0 0 0 0 0 0 0 0 0 0 0 0 0 0 0 0 0 0 0 0 0 0 0 0 0 0 0 0 0 0 0 0 0 0 0 0 0 0 0 0 0 0 0
0 0 0 0 0 0 0 0 0 0 0 0 0 0 0 0 0 0 0 0 0 0 0 0 0 0 0 0 0 0 0 0 0 0 0 0 0 0 0 0 0 0 0 0
0 0 0 0 0 0 0 0 0 0 0 0 0 0 0 0 0 0 0 0 0 0 0 0 0 0 0 0 0 0 0 0 0 0 0 0 0 0 0 0 0 0 0 0
0 0 0 0 0 0 0 0 0 0 0 0 0 0 0 0 0 0 0 0 0 0 0 0 0 0 0 0 0 0 0 0 0 0 0 0 0 0 0 0 0 0 0 0
0 0 0 0 0 0 0 0 0 0 0 0 0 0 0 0 0 0 0 0 0 0 0 0 0 0 0 0 0 0 0 0 0 0 0 0 0 0 0 0 0 0 0 0
0 0 0 0 0 0 0 0 0 0 0 0 0 0 0 0 0 0 0 0 0 0 0 0 0 0 0 0 0 0 0 0 0 0 0 0 0 0 0 0 0 0 0 0
0 0 0 0 0 0 0 0 0 0 0 0 0 0 0 0 0 0 0 0 0 0 0 0 0 0 0 0 0 0 0 0 0 0 0 0 0 0 0 0 0 0 0 0
0 0 0 0 0 0 0 0 0 0 0 0 0 0 0 0 0 0 0 0 0 0 0 0 0 0 0 0 0 0 0 0 0 0 0 0 0 0 0 0 0 0 0 0
0 0 0 0 0 0 0 0 0 0 0 0 0 0 0 0 0 0 0 0 0 0 0 0 0 0 0 0 0 0 0 0 0 0 0 0 0 0 0 0 0 0 0 0
0 0 0 0 0 0 0 0 0 0 0 0 0 0 0 0 0 0 0 0 0 0 0 0 0 0 0 0 0 0 0 0 0 0 0 0 0 0 0 0 0 0 0 0
0 0 0 0 0 0 0 0 0 0 0 0 0 0 0 0 0 0 0 0 0 0 0 0 0 0 0 0 0 0 0 0 0 0 0 0 0 0 0 0 0 0 0 0
0 0 0 0 0 0 0 0 0 0 0 0 0 0 0 0 0 0 0 0 0 0 0 0 0 0 0 0 0 0 0 0 0 0 0 0 0 0 0 0 0 0 0 0
0 0 0 0 0 0 0 0 0 0 0 0 0 0 0 0 0 0 0 0 0 0 0 0 0 0 0 0 0 0 0 0 0 0 0 0 0 0 0 0 0 0 0 0
0 0 0 0 0 0 0 0 0 0 0 0 0 0 0 0 0 0 0 0 0 0 0 0 0 0 0 0 0 0 0 0 0 0 0 0 0 0 0 0 0 0 0 0
0 0 0 0 0 0 0 0 0 0 0 0 0 0 0 0 0 0 0 0 0 0 0 0 0 0 0 0 0 0 0 0 0 0 0 0 0 0 0 0 0 0 0 0
0 0 0 0 0 0 0 0 0 0 0 0 0 0 0 0 0 0 0 0 0 0 0 0 0 0 0 0 0 0 0 0 0 0 0 0 0 0 0 0 0 0 0 0
0 0 0 0 0 0 0 0 0 0 0 0 0 0 0 0 0 0 0 0 0 0 0 0 0 0 0 0 0 0 0 0 0 0 0 0 0 0 0 0 0 0 0 0
0 0 0 0 0 0 0 0 0 0 0 0 0 0 0 0 0 0 0 0 0 0 0 0 0 0 0 0 0 0 0 0 0 0 0 0 0 0 0 0 0 0 0 0
0 0 0 0 0 0 0 0 0 0 0 0 0 0 0 0 0 0 0 0 0 0 0 0 0 0 0 0 0 0 0 0 0 0 0 0 0 0 0 0 0 0 0 0
0 0 0 0 0 0 0 0 0 0 0 0 0 0 0 0 0 0 0 0 0 0 0 0 0 0 0 0 0 0 0 0 0 0 0 0 0 0 0 0 0 0 0 0
0 0 0 0 0 0 0 0 0 0 0 0 0 0 0 0 0 0 0 0 0 0 0 0 0 0 0 0 0 0 0 0 0 0 0 0 0 0 0 0 0 0 0 0
0 0 0 0 0 0 0 0 0 0 0 0 0 0 0 0 0 0 0 0 0 0 0 0 0 0 0 0 0 0 0 0 0 0 0 0 0 0 0 0 0 0 0 0
0 0 0 0 0 0 0 0 0 0 0 0 0 0 0 0 0 0 0 0 0 0 0 0 0 0 0 0 0 0 0 0 0 0 0 0 0 0 0 0 0 0 0 0
0 0 0 0 0 0 0 0 0 0 0 0 0 0 0 0 0 0 0 0 0 0 0 0 0 0 0 0 0 0 0 0 0 0 0 0 0 0 0 0 0 0 0 0
0 0 0 0 0 0 0 0 0 0 0 0 0 0 0 0 0 0 0 0 0 0 0 0 0 0 0 0 0 0 0 0 0 0 0 0 0 0 0 0 0 0 0 0
0 0 0 0 0 0 0 0 0 0 0 0 0 0 0 0 0 0 0 0 0 0 0 0 0 0 0 0 0 0 0 0 0 0 0 0 0 0 0 0 0 0 0 0
Wind_Speed
11 8 7 10 11 12 15 15 14 14 15 14 8 6 5 4 3 3 3 3 3 3 2 2 2 2 2 2 2 2 2 3 3 3 3 2 2 2 2 3 3 3 3 4
8 7 8 12 14 15 16 16 17 17 17 9 5 3 4 4 3 3 3 3 3 2 2 2 2 2 2 2 2 2 2 2 2 2 2 1 1 1 2 2 2 2 3 4
7 4 6 12 12 13 11 11 11 15 12 3 3 4 4 4 4 4 3 3 2 2 2 2 2 2 2 2 2 2 2 2 2 1 1 1 1 1 2 3 3 3 3 4
4 3 11 4 1 6 9 9 9 9 6 5 5 3 2 2 3 3 2 2 2 1 1 2 2 2 2 1 1 1 1 2 2 2 2 2 1 2 2 3 3 3 3 4
4 6 11 5 2 3 6 7 7 9 8 4 1 1 2 2 2 2 2 1 1 1 1 1 1 2 1 1 1 1 2 2 3 2 2 2 2 3 3 3 3 3 3 4
5 7 9 1 2 0 2 6 3 5 6 4 2 4 2 1 1 0 0 1 1 1 1 1 1 1 1 1 1 2 3 3 3 3 3 3 3 3 3 3 3 3 4 4
9 9 9 1 1 3 5 3 0 4 5 5 5 4 1 2 1 1 1 1 1 1 1 1 1 1 1 1 2 3 3 3 3 3 3 3 3 3 3 3 3 3 4 4
6 8 9 3 5 6 3 2 1 2 3 3 3 1 1 1 1 1 1 1 1 1 1 1 1 1 1 2 3 3 3 3 3 3 3 2 3 3 3 3 3 3 3 4
7 6 1 4 4 2 2 2 2 1 2 3 3 3 2 1 1 1 0 1 1 1 1 2 2 1 2 3 3 3 3 3 3 3 3 3 3 3 3 3 3 3 3 4
5 6 4 4 3 3 3 3 2 1 2 3 3 3 2 2 1 1 1 1 1 1 1 2 2 2 2 3 3 2 3 3 3 3 3 2 2 2 2 3 3 3 3 4
6 4 4 4 5 5 3 2 1 1 1 2 3 3 2 2 2 1 1 1 1 1 2 2 2 3 3 2 2 3 3 3 3 3 3 3 3 3 3 3 4 4 4 4
6 4 4 3 1 2 2 2 2 1 1 1 2 2 2 1 1 1 1 1 1 1 2 2 3 3 3 3 2 3 3 3 3 3 3 3 3 3 5 6 7 8 8 7
4 3 2 2 1 0 1 1 1 1 2 1 1 1 1 1 1 1 1 1 2 2 3 3 3 3 3 3 3 3 3 4 3 3 3 3 3 4 4 5 6 7 8 9
3 1 2 2 1 0 1 1 1 1 1 1 1 1 1 0 1 1 2 2 2 2 3 3 3 4 3 3 3 3 4 4 4 3 3 4 4 4 4 5 5 5 6 8
2 2 2 1 1 1 1 2 2 1 1 1 1 0 0 1 1 2 2 2 2 3 3 3 3 4 4 3 3 4 4 3 3 3 4 4 4 4 4 5 5 5 5 6
2 0 1 1 1 0 1 1 1 1 0 0 0 1 1 1 2 2 3 2 2 4 4 4 4 4 4 3 3 3 3 5 5 4 4 4 4 4 4 4 4 5 5 5
1 1 1 1 2 1 1 2 2 2 1 1 2 2 1 1 2 2 3 3 3 4 5 5 5 4 4 3 3 3 3 4 6 5 4 4 4 4 4 4 4 5 5 6
2 2 2 3 2 2 1 2 2 2 2 2 2 1 2 2 3 3 3 3 4 4 5 4 4 4 4 4 3 3 3 3 3 4 4 4 4 4 4 4 5 5 5 6
1 1 1 1 1 1 2 2 2 2 2 2 2 2 3 3 3 3 3 3 4 5 4 4 6 5 4 4 4 3 4 4 4 4 4 5 5 4 4 5 5 5 5 5
1 0 0 1 1 1 2 2 1 1 1 1 2 2 3 3 3 3 3 4 4 4 5 6 5 4 4 4 5 3 4 4 4 4 4 4 4 5 5 5 5 5 6 5
1 1 1 1 1 1 2 2 2 2 2 2 2 3 3 4 3 3 3 4 4 4 5 6 4 4 4 5 6 4 4 4 4 4 4 4 5 5 5 5 5 5 6 6
1 1 2 2 2 2 2 2 2 2 2 2 2 3 3 3 3 3 4 4 4 6 5 4 4 6 7 7 4 3 4 4 4 4 4 5 5 5 5 6 6 6 6 6
2 2 2 2 2 2 2 2 2 2 2 3 3 3 3 3 3 3 4 3 4 7 6 4 6 9 9 5 3 3 4 4 5 5 5 5 5 5 6 6 6 6 6 6
2 2 2 1 1 1 2 2 2 2 2 3 3 3 3 3 3 3 4 6 8 8 5 6 9 9 7 3 3 3 4 5 5 5 5 5 5 5 6 6 6 7 7 8
2 2 2 2 2 2 2 2 2 2 2 2 3 3 3 3 3 4 4 5 7 8 5 6 8 8 5 3 4 4 5 5 6 5 5 5 6 6 6 6 7 7 7 7
2 2 2 2 2 2 2 2 2 2 2 2 3 3 3 3 3 4 4 5 6 7 5 4 5 6 4 4 5 5 5 6 6 6 6 6 7 7 6 7 9 7 7 8
1 1 1 2 2 2 2 2 2 2 2 3 3 3 3 3 3 4 5 4 4 4 4 4 4 4 4 5 5 5 5 5 6 6 6 6 6 6 7 8 7 7 7 8
Wind_Direction
259 267 252 250 244 224 224 234 246 258 261 270 266 260 259 257 261 254 247 241 239 242 254 250 260 258 243 242 237 229 224 230 242 247 247 245 247 266 279 273 260 256 253 251
259 253 255 260 252 237 236 242 248 262 268 278 277 265 256 249 242 238 249 250 246 246 261 259 263 271 260 251 250 235 230 248 258 243 237 241 256 271 282 284 281 274 262 257
259 270 276 257 239 222 223 228 233 246 258 272 255 245 243 241 227 238 253 252 243 245 263 271 276 280 274 269 259 237 243 268 285 271 258 262 270 281 283 283 284 277 275 271
257 250 244 254 95 215 227 244 235 249 266 264 268 278 274 245 240 254 259 254 254 258 282 301 307 305 306 297 260 246 268 290 302 300 287 287 279 274 280 280 282 282 282 283
223 250 268 264 192 191 220 259 236 241 257 272 320 281 261 251 239 246 257 275 281 280 283 311 322 321 327 322 302 286 292 299 304 299 287 284 280 283 283 287 286 285 286 286
218 241 255 267 104 141 204 260 232 221 232 228 198 249 263 100 155 227 12 23 11 20 15 359 347 348 344 319 307 299 302 304 303 295 280 276 278 282 285 285 284 291 291 293
228 242 262 355 135 172 215 275 26 214 218 206 213 252 55 108 100 84 61 47 42 49 12 347 346 342 320 311 305 308 310 308 305 298 286 281 284 285 287 288 288 289 289 292
210 228 248 125 152 203 254 348 258 233 222 215 218 188 158 152 134 113 73 46 36 23 356 349 338 312 309 311 316 317 314 309 306 304 299 294 291 292 291 289 286 288 291 295
206 223 342 159 197 261 316 278 274 250 227 194 193 202 204 208 204 202 273 340 349 339 335 336 335 322 305 314 322 317 311 308 308 312 306 301 293 291 290 287 286 292 295 298
240 250 253 238 261 284 278 268 281 246 206 193 199 204 209 214 219 242 280 312 323 329 320 328 339 331 312 313 313 306 304 307 309 310 310 302 294 286 283 282 284 289 294 297
248 270 283 261 255 264 275 287 292 273 219 208 196 206 213 226 235 245 274 309 315 308 307 315 326 324 322 317 313 304 301 301 302 301 303 297 288 282 283 278 285 289 288 290
244 245 241 263 267 253 242 244 229 206 207 183 197 209 213 231 246 256 275 300 307 304 304 311 315 314 317 317 309 299 297 299 298 298 297 295 292 291 285 286 291 291 293 294
268 313 292 293 335 6 224 230 211 189 190 186 179 186 199 255 275 279 282 288 292 298 303 307 308 308 312 310 300 288 288 294 295 294 293 293 294 293 299 301 294 295 298 298
272 283 270 271 281 7 92 81 83 82 91 127 132 128 141 305 312 296 287 292 296 300 299 301 304 303 309 304 294 288 286 287 289 289 289 289 290 290 289 294 301 303 304 303
291 266 243 305 50 72 88 99 100 90 76 66 83 105 171 282 292 301 308 311 307 298 297 301 298 300 308 301 291 287 286 288 290 288 286 286 287 287 285 286 288 295 302 306
324 32 159 187 238 229 118 138 169 241 247 269 285 281 276 284 296 306 313 310 295 293 297 294 289 297 303 294 289 286 282 290 293 290 286 283 282 282 285 285 286 290 295 303
220 234 210 233 249 252 239 236 237 249 253 254 266 279 281 286 295 298 307 309 292 286 288 285 288 297 296 291 286 285 288 290 292 288 285 283 282 282 284 285 287 290 293 298
240 241 224 218 227 240 266 265 251 253 256 265 271 267 263 266 277 292 303 309 305 297 290 288 290 293 292 290 283 281 283 284 286 285 283 282 282 281 281 282 285 288 293 298
264 237 241 238 236 232 253 262 255 253 261 252 244 252 260 266 275 288 298 297 294 295 299 302 304 302 296 293 289 278 277 281 284 283 281 284 286 284 283 283 285 287 290 292
355 7 303 284 272 239 249 264 263 261 258 241 243 256 267 274 278 284 286 280 277 283 294 297 297 293 291 288 288 278 276 278 280 283 284 283 284 285 284 283 284 286 288 289
291 287 273 274 288 280 262 253 242 256 269 248 240 253 267 279 279 273 273 283 289 292 292 294 297 293 291 288 287 277 272 274 277 278 280 282 284 284 284 284 285 286 288 289
258 252 253 254 261 277 283 267 250 255 263 261 259 261 271 278 278 272 262 268 286 299 303 295 291 291 294 293 282 272 270 273 276 277 277 278 280 281 282 284 285 286 286 286
255 246 245 247 254 274 291 276 257 250 252 258 261 263 268 276 276 274 283 284 290 295 300 291 292 298 305 304 288 276 275 275 276 276 276 276 276 277 280 282 283 284 285 285
257 253 255 259 244 249 268 280 280 272 267 269 264 263 268 279 280 267 274 291 299 303 300 298 301 305 311 304 292 283 277 275 274 275 276 276 275 276 277 279 281 283 283 283
252 246 232 224 237 252 263 279 286 287 292 290 291 287 277 270 273 287 293 293 297 306 305 305 309 311 310 295 287 283 279 273 274 276 273 274 276 276 277 277 278 280 281 282
250 252 249 248 254 258 256 259 271 279 287 293 297 294 294 293 289 288 291 294 295 301 304 303 305 306 297 290 286 283 281 283 285 282 277 276 275 275 276 277 279 278 279 280
262 263 264 268 262 257 257 261 268 274 278 280 288 292 297 299 300 302 302 299 298 298 297 295 296 294 291 288 285 284 282 281 279 277 276 273 273 273 274 276 277 278 279 280